Prescott, AZ

4:15 AM MST on October 14, 2019 (GMT -0700)
Love

Weather History for KPRC - August, 2019

Change the Weather History Date:

Monday, August 26, 2019

  Actual Average Record
Temperature  
Mean Temperature 80 °F 73 °F  
Max Temperature 95 °F 86 °F 95 °F (2001)
Min Temperature 65 °F 59 °F 50 °F (1990)
Degree Days  
Heating Degree Days 0    
Month to date heating degree days 0  
Since 1 July heating degree days 0  
Cooling Degree Days 15    
Month to date cooling degree days 331  
Year to date cooling degree days 899  
Growing Degree Days 30 (Base 50)    
Moisture  
Dew Point 50 °F    
Average Humidity 39    
Maximum Humidity 68    
Minimum Humidity 15    
Precipitation  
Precipitation 0.00 in 0.08 in 1.07 in (1963)
Month to date precipitation 0.30 2.25  
Year to date precipitation 8.11 9.29  
Sea Level Pressure  
Sea Level Pressure 29.83 in    
Wind  
Wind Speed 5 mph ()    
Max Wind Speed 15 mph    
Max Gust Speed 23 mph    
Visibility 10.0 miles    
Events      
T = Trace of Precipitation, MM = Missing Value Source: Averaged Metar Reports

Daily Weather History Graph

Daily Weather History Graph

Search for Another Location

Airport or City:

Astronomy

Aug. 26, 2019 Rise Set
Actual Time 5:58 AM MST 7:04 PM MST
Civil Twilight 5:32 AM MST 7:30 PM MST
Nautical Twilight 5:01 AM MST 8:01 PM MST
Astronomical Twilight 4:29 AM MST 8:32 PM MST
Moon 1:35 AM MST (8/26) 4:22 PM MST (8/26)
Length of Visible Light 13h 57m
Length of Day
13h 05m
Waning Crescent, 18% of the Moon is Illuminated
Aug 26
Waning Crescent
Aug 30
New
Sep 5
First Quarter
Sep 13
Full
Sep 21
Last Quarter

Hourly Weather History & Observations

Time (MST) Temp. Dew Point Humidity Pressure Visibility Wind Dir Wind Speed Gust Speed Precip Events Conditions
12:53 AM 72.0 °F 55.0 °F 55% 29.85 in 10.0 mi SSW 5.8 mph - N/A   Clear
1:53 AM 70.0 °F 55.0 °F 59% 29.85 in 10.0 mi South 3.5 mph - N/A   Clear
2:53 AM 70.0 °F 55.9 °F 61% 29.84 in 10.0 mi South 3.5 mph - N/A   Clear
3:53 AM 66.9 °F 55.9 °F 68% 29.85 in 10.0 mi SSE 3.5 mph - N/A   Clear
4:53 AM 66.0 °F 55.0 °F 68% 29.86 in 10.0 mi South 5.8 mph - N/A   Clear
5:53 AM 66.0 °F 55.0 °F 68% 29.87 in 10.0 mi South 6.9 mph - N/A   Clear
6:53 AM 69.1 °F 55.0 °F 61% 29.88 in 10.0 mi SSE 3.5 mph - N/A   Clear
7:53 AM 75.0 °F 57.0 °F 53% 29.89 in 10.0 mi Calm Calm - N/A   Clear
8:53 AM 79.0 °F 55.9 °F 45% 29.89 in 10.0 mi Calm Calm - N/A   Clear
9:53 AM 84.0 °F 50.0 °F 31% 29.88 in 10.0 mi West 4.6 mph - N/A   Clear
10:53 AM 87.1 °F 44.1 °F 22% 29.88 in 10.0 mi West 4.6 mph - N/A   Clear
11:53 AM 91.0 °F 37.0 °F 15% 29.85 in 10.0 mi NW 10.4 mph - N/A   Clear
12:53 PM 91.0 °F 41.0 °F 17% 29.83 in 10.0 mi NNW 9.2 mph 17.3 mph N/A   Clear
1:53 PM 93.0 °F 44.1 °F 18% 29.81 in 10.0 mi Calm Calm - N/A   Clear
2:53 PM 93.9 °F 41.0 °F 16% 29.79 in 10.0 mi Variable 5.8 mph - N/A   Clear
3:53 PM 93.9 °F 42.1 °F 17% 29.78 in 10.0 mi North - - N/A   Clear
4:53 PM 91.9 °F 46.0 °F 21% 29.78 in 10.0 mi West 13.8 mph - N/A   Clear
5:53 PM 90.0 °F 46.9 °F 23% 29.78 in 10.0 mi WSW 11.5 mph - N/A   Clear
6:53 PM 88.0 °F 46.9 °F 24% 29.78 in 10.0 mi WSW 10.4 mph - N/A   Clear
7:53 PM 84.0 °F 51.1 °F 32% 29.78 in 10.0 mi SW 11.5 mph - N/A   Clear
8:53 PM 82.0 °F 51.1 °F 34% 29.81 in 10.0 mi SSW 10.4 mph - N/A   Clear
9:53 PM 80.1 °F 51.1 °F 36% 29.81 in 10.0 mi SSW 6.9 mph - N/A   Clear
10:53 PM 78.1 °F 52.0 °F 40% 29.81 in 10.0 mi Calm Calm - N/A   Clear
11:53 PM 75.9 °F 52.0 °F 43% 29.81 in 10.0 mi South 5.8 mph - N/A   Clear